����,���ϕ���(m/s),���ϕ���,�ő�u�ԕ���(m/s),�ő啗��������,�C��(��),���x(%),10���Ԉړ��ώZ�J��(mm),1���Ԉړ��ώZ�J��(mm),���J��(mm),�݌v�J��(mm)
2020-04-13T00:00:00+09:00,1.4,�k�k��,6.3,�k��,7.8,90.4,0.5,4.5,35,35
2020-04-13T00:01:00+09:00,1.5,�k,6.3,�k��,7.9,90.6,1,5,0.5,35.5
2020-04-13T00:02:00+09:00,1.7,�k,6.3,�k��,7.9,90,1,5,0.5,35.5
2020-04-13T00:03:00+09:00,1.7,�k,6.3,�k��,7.8,89.6,1,5,0.5,35.5
2020-04-13T00:04:00+09:00,1.7,�k,6.3,�k��,7.8,89.9,1,4.5,0.5,35.5
2020-04-13T00:05:00+09:00,1.7,�k�k��,6.3,�k��,7.8,90.3,1,4.5,0.5,35.5
2020-04-13T00:06:00+09:00,1.8,�k�k��,6.3,�k��,7.8,90.5,0.5,4.5,0.5,35.5
2020-04-13T00:07:00+09:00,1.8,�k�k��,6.3,�k��,7.9,91,1,5,1,36
2020-04-13T00:08:00+09:00,1.9,�k�k��,8.9,���k��,8,90.7,1,5,1,36
2020-04-13T00:09:00+09:00,1.9,�k�k��,8.9,���k��,7.9,90.3,1,4.5,1,36
2020-04-13T00:10:00+09:00,1.6,�k�k��,8.9,���k��,7.9,90.4,1,4.5,1,36
2020-04-13T00:11:00+09:00,1.8,�k�k��,8.9,���k��,8,90.7,0.5,4.5,1,36
2020-04-13T00:12:00+09:00,1.9,�k��,8.9,���k��,8,90.5,0.5,4.5,1,36
2020-04-13T00:13:00+09:00,2.1,�k�k��,8.9,���k��,8,89.8,0.5,4.5,1,36
2020-04-13T00:14:00+09:00,2.1,�k�k��,8.9,���k��,7.9,89.9,0.5,4.5,1,36
2020-04-13T00:15:00+09:00,2.1,�k�k��,8.9,���k��,7.9,90.4,1,5,1.5,36.5
2020-04-13T00:16:00+09:00,2.1,�k�k��,8.9,���k��,8,90.9,1,4.5,1.5,36.5
2020-04-13T00:17:00+09:00,2.2,�k�k��,8.9,���k��,8,90.4,0.5,4.5,1.5,36.5
2020-04-13T00:18:00+09:00,1.9,�k�k��,8.4,���k��,8,90.6,0.5,4.5,1.5,36.5
2020-04-13T00:19:00+09:00,1.9,�k�k��,8.4,���k��,8,90.6,0.5,4.5,1.5,36.5
2020-04-13T00:20:00+09:00,1.9,�k�k��,8.4,���k��,8.1,90.8,0.5,4.5,1.5,36.5
2020-04-13T00:21:00+09:00,1.6,�k�k��,6.2,���k��,8.1,90.5,1,4.5,2,37
2020-04-13T00:22:00+09:00,1.3,�k,5,�k�k��,8,90.4,1,4.5,2,37
2020-04-13T00:23:00+09:00,1.2,�k�k��,3.9,���k��,8,90.4,1,4.5,2,37
2020-04-13T00:24:00+09:00,1.4,�k�k��,5.2,�k�k��,8,90.6,1,4.5,2,37
2020-04-13T00:25:00+09:00,1.5,�k�k��,5.2,�k�k��,8.1,90.9,0.5,4.5,2,37
2020-04-13T00:26:00+09:00,1.4,�k�k��,5.2,�k�k��,8,90.8,0.5,4.5,2,37
2020-04-13T00:27:00+09:00,1.5,�k�k��,5.2,�k�k��,8,90.3,0.5,4.5,2,37
2020-04-13T00:28:00+09:00,1.6,�k�k��,5.2,�k�k��,8,90.6,1,4.5,2.5,37.5
2020-04-13T00:29:00+09:00,1.7,�k�k��,5.2,�k�k��,8,90.6,1,4.5,2.5,37.5
2020-04-13T00:30:00+09:00,1.7,�k,5.2,�k�k��,8,90.7,1,4.5,2.5,37.5
2020-04-13T00:31:00+09:00,1.8,�k,5.2,�k�k��,7.9,90.8,0.5,4.5,2.5,37.5
2020-04-13T00:32:00+09:00,1.7,�k,5.2,�k�k��,8,91,1,5,3,38
2020-04-13T00:33:00+09:00,1.7,�k�k��,5.2,�k�k��,8,90.8,1,5,3,38
2020-04-13T00:34:00+09:00,1.8,�k�k��,5.1,�k��,8.1,91,1,5,3,38
2020-04-13T00:35:00+09:00,2,�k��,7.2,��,8.3,91.1,1,5,3,38
2020-04-13T00:36:00+09:00,2.4,�k��,9.7,�k��,8.4,90.3,1,5,3,38
2020-04-13T00:37:00+09:00,2.3,�k��,9.7,�k��,8.4,89.1,1.5,5,3.5,38.5
2020-04-13T00:38:00+09:00,2.3,�k��,9.7,�k��,8.3,88.9,1,5,3.5,38.5
2020-04-13T00:39:00+09:00,2.3,�k��,9.7,�k��,8.4,89.1,1,5,3.5,38.5
2020-04-13T00:40:00+09:00,2.5,�k��,9.7,�k��,8.4,88.8,1,5,3.5,38.5
2020-04-13T00:41:00+09:00,2.5,�k��,9.7,�k��,8.3,88.8,1,5,3.5,38.5
2020-04-13T00:42:00+09:00,2.5,�k��,9.7,�k��,8.4,88.8,0.5,5,3.5,38.5
2020-04-13T00:43:00+09:00,2.5,�k��,9.7,�k��,8.3,88.7,0.5,4.5,3.5,38.5
2020-04-13T00:44:00+09:00,2.2,�k�k��,9.7,�k��,8.3,89,0.5,4.5,3.5,38.5
2020-04-13T00:45:00+09:00,1.9,�k�k��,9.7,�k��,8.3,89.2,1,5,4,39
2020-04-13T00:46:00+09:00,1.5,�k�k��,5.2,�k�k��,8.4,89.2,1,5,4,39
2020-04-13T00:47:00+09:00,1.4,�k�k��,5.2,�k�k��,8.4,89,0.5,5,4,39
2020-04-13T00:48:00+09:00,1.3,�k�k��,4,�k��,8.4,88.6,0.5,5,4,39
2020-04-13T00:49:00+09:00,1.4,�k��,5.6,���k��,8.4,88.7,0.5,5,4,39
2020-04-13T00:50:00+09:00,1.5,�k��,6.1,�k��,8.5,88.4,0.5,4.5,4,39
2020-04-13T00:51:00+09:00,1.5,�k�k��,6.1,�k��,8.3,88.2,0.5,4.5,4,39
2020-04-13T00:52:00+09:00,1.6,�k,6.1,�k��,8.4,88.9,0.5,4.5,4,39
2020-04-13T00:53:00+09:00,1.5,�k,6.1,�k��,8.4,88.8,0.5,4.5,4,39
2020-04-13T00:54:00+09:00,1.7,�k��,6.1,�k��,8.5,88.4,0.5,4.5,4,39
2020-04-13T00:55:00+09:00,1.8,�k��,6.1,�k��,8.4,88.3,0.5,5,4.5,39.5
2020-04-13T00:56:00+09:00,1.8,�k��,6.1,�k��,8.4,88.8,0.5,4.5,4.5,39.5
2020-04-13T00:57:00+09:00,2.1,�k��,6.1,�k��,8.4,88.7,0.5,4.5,4.5,39.5
2020-04-13T00:58:00+09:00,2.4,�k��,8.2,�k��,8.5,88.4,0.5,4.5,4.5,39.5
2020-04-13T00:59:00+09:00,2.3,�k�k��,8.3,��,8.3,88.5,0.5,4.5,4.5,39.5
2020-04-13T01:00:00+09:00,2.4,�k,8.3,��,8.4,88.9,0.5,4.5,4.5,39.5
2020-04-13T01:01:00+09:00,2.5,�k,8.3,��,8.5,88.7,0.5,4,4.5,39.5
2020-04-13T01:02:00+09:00,2.6,�k,8.3,��,8.5,88.4,1,4.5,5,40
2020-04-13T01:03:00+09:00,2.5,�k,8.3,��,8.4,88.4,1,4.5,5,40
2020-04-13T01:04:00+09:00,2.5,�k,8.3,��,8.4,88.7,1,4.5,5,40
2020-04-13T01:05:00+09:00,2.8,�k�k��,8.3,��,8.5,88.5,0.5,4.5,5,40
2020-04-13T01:06:00+09:00,2.9,�k�k��,8.3,��,8.5,88,0.5,4.5,5,40
2020-04-13T01:07:00+09:00,2.7,�k,8.3,��,8.4,88,0.5,4,5,40
2020-04-13T01:08:00+09:00,2.4,�k,8.3,��,8.3,88.7,1,4.5,5.5,40.5
2020-04-13T01:09:00+09:00,2.2,�k,7.4,�k��,8.4,89.2,1,4.5,5.5,40.5
2020-04-13T01:10:00+09:00,1.8,�k,7.1,���k��,8.4,89,1,4.5,5.5,40.5
2020-04-13T01:11:00+09:00,1.7,�k,7.1,���k��,8.5,88.8,1,4.5,5.5,40.5
2020-04-13T01:12:00+09:00,1.5,�k,7.1,���k��,8.5,88.4,0.5,4.5,5.5,40.5
2020-04-13T01:13:00+09:00,1.5,�k,7.1,���k��,8.6,88,0.5,4.5,5.5,40.5
2020-04-13T01:14:00+09:00,1.5,�k,7.1,���k��,8.6,87.7,0.5,4.5,5.5,40.5
2020-04-13T01:15:00+09:00,1.4,�k,5.1,���k��,8.5,87.8,0.5,4,5.5,40.5
2020-04-13T01:16:00+09:00,1.4,�k,5.1,���k��,8.5,87.8,0.5,4,5.5,40.5
2020-04-13T01:17:00+09:00,1.5,�k,5.1,���k��,8.4,88.2,1,4.5,6,41
2020-04-13T01:18:00+09:00,1.5,�k,5.1,���k��,8.4,88.7,0.5,4.5,6,41
2020-04-13T01:19:00+09:00,1.5,�k,5.1,���k��,8.4,89,0.5,4.5,6,41
2020-04-13T01:20:00+09:00,1.4,�k,5.1,���k��,8.3,89.4,0.5,4.5,6,41
2020-04-13T01:21:00+09:00,1.5,�k,5.1,���k��,8.4,89.6,0.5,4,6,41
2020-04-13T01:22:00+09:00,1.6,�k,5.1,���k��,8.5,89.7,0.5,4,6,41
2020-04-13T01:23:00+09:00,1.7,�k,5.1,���k��,8.5,89.4,1,4.5,6.5,41.5
2020-04-13T01:24:00+09:00,1.6,�k,5.5,�k��,8.5,89.2,1,4.5,6.5,41.5
2020-04-13T01:25:00+09:00,1.4,�k�k��,5.5,�k��,8.6,88.9,1,4.5,6.5,41.5
2020-04-13T01:26:00+09:00,1.2,�k�k��,5.5,�k��,8.6,88.4,1,4.5,6.5,41.5
2020-04-13T01:27:00+09:00,1.1,�k�k��,5.5,�k��,8.6,88.2,0.5,4.5,6.5,41.5
2020-04-13T01:28:00+09:00,1.4,�k�k��,8.8,�k�k��,8.5,88.4,0.5,4,6.5,41.5
2020-04-13T01:29:00+09:00,1.7,�k,8.8,�k�k��,8.7,88.1,1,4.5,7,42
2020-04-13T01:30:00+09:00,1.9,�k,8.8,�k�k��,8.7,87.5,1,4.5,7,42
2020-04-13T01:31:00+09:00,2,�k�k��,8.8,�k�k��,8.6,87.5,1,4.5,7,42
2020-04-13T01:32:00+09:00,2,�k�k��,8.8,�k�k��,8.6,87.5,1,4,7,42
2020-04-13T01:33:00+09:00,1.9,�k�k��,8.8,�k�k��,8.6,87.8,1,4.5,7.5,42.5
2020-04-13T01:34:00+09:00,1.9,�k�k��,8.8,�k�k��,8.7,87.6,1,4.5,7.5,42.5
2020-04-13T01:35:00+09:00,1.9,�k�k��,8.8,�k�k��,8.6,87.6,1,4.5,7.5,42.5
2020-04-13T01:36:00+09:00,2,�k�k��,8.8,�k�k��,8.6,87.7,1,4.5,7.5,42.5
2020-04-13T01:37:00+09:00,2,�k�k��,8.8,�k�k��,8.6,87.6,1,4,7.5,42.5
2020-04-13T01:38:00+09:00,1.7,�k,5.2,���k��,8.6,87.6,1,4,7.5,42.5
2020-04-13T01:39:00+09:00,1.6,�k,6.6,�k��,8.6,87.8,0.5,4,7.5,42.5
2020-04-13T01:40:00+09:00,1.6,�k,6.6,�k��,8.7,87.5,1,4.5,8,43
2020-04-13T01:41:00+09:00,1.6,�k,6.6,�k��,8.7,86.6,1,4.5,8,43
2020-04-13T01:42:00+09:00,1.7,�k,6.6,�k��,8.4,87.4,1,4.5,8,43
2020-04-13T01:43:00+09:00,1.7,�k,6.6,�k��,8.5,88.5,0.5,4.5,8,43
2020-04-13T01:44:00+09:00,1.8,�k,6.6,�k��,8.5,88.7,0.5,4.5,8,43
2020-04-13T01:45:00+09:00,1.8,�k,6.6,�k��,8.5,88.9,0.5,4,8,43
2020-04-13T01:46:00+09:00,2,�k�k��,6.6,�k��,8.6,88.9,0.5,4,8,43
2020-04-13T01:47:00+09:00,2.1,�k�k��,6.6,�k��,8.6,88,1,4.5,8.5,43.5
2020-04-13T01:48:00+09:00,2.2,�k�k��,6.6,�k��,8.5,88.3,1,4.5,8.5,43.5
2020-04-13T01:49:00+09:00,2.1,�k�k��,6.2,��,8.5,88.9,1,4.5,8.5,43.5
2020-04-13T01:50:00+09:00,1.9,�k,6.2,��,8.4,89.1,0.5,4.5,8.5,43.5
2020-04-13T01:51:00+09:00,1.9,�k,6.2,��,8.4,89.6,0.5,4.5,8.5,43.5
2020-04-13T01:52:00+09:00,1.7,�k,6.2,��,8.4,89.5,0.5,4.5,8.5,43.5
2020-04-13T01:53:00+09:00,1.7,�k�k��,6.2,��,8.4,89.5,0.5,4.5,8.5,43.5
2020-04-13T01:54:00+09:00,1.7,�k�k��,6.2,��,8.4,89.6,1,5,9,44
2020-04-13T01:55:00+09:00,1.9,�k�k��,6.2,��,8.5,89.5,1,4.5,9,44
2020-04-13T01:56:00+09:00,1.7,�k�k��,5.4,�k��,8.6,89.1,1,4.5,9,44
2020-04-13T01:57:00+09:00,1.8,�k�k��,5.4,�k��,8.5,88.9,0.5,4.5,9,44
2020-04-13T01:58:00+09:00,2,�k,6,�k��,8.7,87.8,0.5,4.5,9,44
2020-04-13T01:59:00+09:00,2,�k�k��,6,�k��,8.6,87.2,0.5,4.5,9,44
2020-04-13T02:00:00+09:00,2,�k�k��,6,�k��,8.6,87.4,0.5,4.5,9,44
2020-04-13T02:01:00+09:00,2,�k�k��,6,�k��,8.6,87.5,0.5,4.5,9,44
2020-04-13T02:02:00+09:00,2.2,�k�k��,6.8,���k��,8.7,87.5,1,4.5,9.5,44.5
2020-04-13T02:03:00+09:00,2.3,�k�k��,6.8,���k��,8.7,87.1,1,4.5,9.5,44.5
2020-04-13T02:04:00+09:00,2.2,�k�k��,6.8,���k��,8.7,87.1,0.5,4.5,9.5,44.5
2020-04-13T02:05:00+09:00,2.1,�k,6.8,���k��,8.7,86.8,0.5,4.5,9.5,44.5
2020-04-13T02:06:00+09:00,2,�k�k��,6.8,���k��,8.8,86.6,0.5,4.5,9.5,44.5
2020-04-13T02:07:00+09:00,1.8,�k�k��,6.8,���k��,8.8,86.1,0.5,4.5,9.5,44.5
2020-04-13T02:08:00+09:00,1.8,�k,8.3,��,8.8,85.8,0.5,4,9.5,44.5
2020-04-13T02:09:00+09:00,2,�k�k��,8.3,��,8.8,85.6,0.5,4,9.5,44.5
2020-04-13T02:10:00+09:00,1.9,�k�k��,8.3,��,8.9,85.3,0.5,4,9.5,44.5
2020-04-13T02:11:00+09:00,2,�k�k��,8.3,��,8.8,85.6,0.5,4,9.5,44.5
2020-04-13T02:12:00+09:00,1.9,�k,8.3,��,8.8,86.1,0,4,9.5,44.5
2020-04-13T02:13:00+09:00,1.9,�k,8.3,��,8.8,86,0,4,9.5,44.5
2020-04-13T02:14:00+09:00,1.9,�k,8.3,��,8.8,85.8,0.5,4.5,10,45
2020-04-13T02:15:00+09:00,1.9,�k�k��,8.3,��,8.7,85.8,0.5,4.5,10,45
2020-04-13T02:16:00+09:00,1.9,�k�k��,8.3,��,8.8,86,0.5,4.5,10,45
2020-04-13T02:17:00+09:00,2,�k�k��,8.3,��,8.7,86.1,0.5,4,10,45
2020-04-13T02:18:00+09:00,1.7,�k,6.4,���k��,8.7,86.3,0.5,4,10,45
2020-04-13T02:19:00+09:00,1.6,�k,5.9,���k��,8.7,86.7,0.5,4,10,45
2020-04-13T02:20:00+09:00,1.8,�k,6.8,�k��,8.6,87.1,0.5,4,10,45
2020-04-13T02:21:00+09:00,1.9,�k,6.8,�k��,8.7,87.2,0.5,4,10,45
2020-04-13T02:22:00+09:00,2.3,�k�k��,10.5,�k��,8.7,86.9,0.5,4,10,45
2020-04-13T02:23:00+09:00,2.2,�k�k��,10.5,�k��,8.7,86.4,0.5,3.5,10,45
2020-04-13T02:24:00+09:00,2.4,�k�k��,10.5,�k��,8.7,86.9,0,3.5,10,45
2020-04-13T02:25:00+09:00,2.4,�k�k��,10.5,�k��,8.8,86.1,0,3.5,10,45
2020-04-13T02:26:00+09:00,2.6,�k�k��,10.5,�k��,8.8,85.9,0.5,4,10.5,45.5
2020-04-13T02:27:00+09:00,2.6,�k�k��,10.5,�k��,8.7,86,0.5,4,10.5,45.5
2020-04-13T02:28:00+09:00,2.6,�k��,10.5,�k��,8.7,86.5,0.5,4,10.5,45.5
2020-04-13T02:29:00+09:00,2.7,�k��,10.5,�k��,8.7,86.6,0.5,3.5,10.5,45.5
2020-04-13T02:30:00+09:00,2.7,�k��,10.5,�k��,8.7,86.7,0.5,3.5,10.5,45.5
2020-04-13T02:31:00+09:00,2.6,�k��,10.5,�k��,8.7,86.9,0.5,3.5,10.5,45.5
2020-04-13T02:32:00+09:00,2.1,�k��,6.6,�k��,8.6,87.4,0.5,3.5,10.5,45.5
2020-04-13T02:33:00+09:00,2.1,�k��,6.6,�k��,8.7,87.4,0.5,3,10.5,45.5
2020-04-13T02:34:00+09:00,1.9,�k��,6.1,��,8.7,87.2,0.5,3,10.5,45.5
2020-04-13T02:35:00+09:00,1.8,�k��,5.9,���k��,8.7,87.1,0.5,3,10.5,45.5
2020-04-13T02:36:00+09:00,1.6,�k��,5.7,���k��,8.7,87,0,3,10.5,45.5
2020-04-13T02:37:00+09:00,1.6,�k��,5.7,���k��,8.8,87.2,0,3,10.5,45.5
2020-04-13T02:38:00+09:00,1.7,�k�k��,6,�k�k��,8.8,86.3,0.5,3.5,11,46
2020-04-13T02:39:00+09:00,1.8,�k�k��,6.7,�k�k��,8.8,86.5,0.5,3.5,11,46
2020-04-13T02:40:00+09:00,1.9,�k��,6.7,�k�k��,8.8,86.3,0.5,3,11,46
2020-04-13T02:41:00+09:00,1.9,�k��,6.7,�k�k��,8.7,86.4,0.5,3,11,46
2020-04-13T02:42:00+09:00,2,�k��,6.7,�k�k��,8.6,86.9,0.5,3,11,46
2020-04-13T02:43:00+09:00,2.1,�k�k��,8.4,���k��,8.7,87.1,0.5,3,11,46
2020-04-13T02:44:00+09:00,2.3,�k��,8.4,���k��,8.8,86,0.5,3,11,46
2020-04-13T02:45:00+09:00,2.3,�k��,8.4,���k��,8.7,86,0.5,3,11,46
2020-04-13T02:46:00+09:00,2.3,�k��,8.4,���k��,8.7,86.3,0.5,3,11,46
2020-04-13T02:47:00+09:00,2.3,�k��,8.4,���k��,8.7,86.3,1,3,11.5,46.5
2020-04-13T02:48:00+09:00,2.3,�k�k��,8.4,���k��,8.7,86.4,0.5,3,11.5,46.5
2020-04-13T02:49:00+09:00,2.2,�k�k��,8.4,���k��,8.8,86.2,0.5,3,11.5,46.5
2020-04-13T02:50:00+09:00,1.9,�k,8.4,���k��,8.8,86.2,0.5,3,11.5,46.5
2020-04-13T02:51:00+09:00,2,�k�k��,8.4,���k��,8.8,85.9,0.5,3,11.5,46.5
2020-04-13T02:52:00+09:00,2,���k��,8.4,���k��,8.8,85.7,0.5,3,11.5,46.5
2020-04-13T02:53:00+09:00,1.9,�k��,8,���k��,8.7,86,0.5,3,11.5,46.5
2020-04-13T02:54:00+09:00,1.8,�k��,7.5,��,8.7,86.5,1,3,12,47
2020-04-13T02:55:00+09:00,1.8,�k��,7.5,��,8.6,86.9,1,3,12,47
2020-04-13T02:56:00+09:00,1.6,�k�k��,7.5,��,8.5,87.5,1,3,12,47
2020-04-13T02:57:00+09:00,1.6,�k�k��,7.5,��,8.6,88,0.5,3,12,47
2020-04-13T02:58:00+09:00,1.5,�k�k��,6.9,���k��,8.6,88.2,0.5,3,12,47
2020-04-13T02:59:00+09:00,1.4,�k�k��,6.9,���k��,8.6,87.9,0.5,3,12,47
2020-04-13T03:00:00+09:00,1.5,�k�k��,6.9,���k��,8.6,87.6,0.5,3,12,47
2020-04-13T03:01:00+09:00,1.4,�k�k��,6.9,���k��,8.6,87.6,0.5,3,12,47
2020-04-13T03:02:00+09:00,1.4,�k,5.9,�k��,8.6,87.7,0.5,2.5,12,47
2020-04-13T03:03:00+09:00,1.7,�k�k��,10.1,���k��,8.7,87.6,0.5,2.5,12,47
2020-04-13T03:04:00+09:00,2,�k�k��,10.1,���k��,8.7,87.1,0,2.5,12,47
2020-04-13T03:05:00+09:00,2.2,�k�k��,10.1,���k��,8.7,87,0.5,3,12.5,47.5
2020-04-13T03:06:00+09:00,2.4,�k�k��,10.1,���k��,8.6,87.5,0.5,3,12.5,47.5
2020-04-13T03:07:00+09:00,2.6,�k��,10.1,���k��,8.7,87.3,0.5,3,12.5,47.5
2020-04-13T03:08:00+09:00,2.5,�k�k��,10.1,���k��,8.6,87.3,0.5,3,12.5,47.5
2020-04-13T03:09:00+09:00,2.7,�k�k��,10.1,���k��,8.6,87.4,0.5,3,12.5,47.5
2020-04-13T03:10:00+09:00,2.7,�k�k��,10.1,���k��,8.6,87.5,0.5,3,12.5,47.5
2020-04-13T03:11:00+09:00,2.7,�k�k��,10.1,���k��,8.6,88,0.5,3,12.5,47.5
2020-04-13T03:12:00+09:00,2.6,�k�k��,10.1,���k��,8.7,87.7,0.5,3,12.5,47.5
2020-04-13T03:13:00+09:00,2.4,�k�k��,7.8,�k��,8.7,87.2,1,3.5,13,48
2020-04-13T03:14:00+09:00,2.2,�k�k��,7.3,�k�k��,8.7,87,1,3,13,48
2020-04-13T03:15:00+09:00,2,�k�k��,6.7,�k��,8.6,87,0.5,3,13,48
2020-04-13T03:16:00+09:00,1.8,�k,6.7,�k��,8.7,87.2,0.5,3,13,48
2020-04-13T03:17:00+09:00,1.9,�k,6.7,�k��,8.7,87,0.5,3,13,48
2020-04-13T03:18:00+09:00,2,�k�k��,6.7,�k��,8.7,86.5,0.5,3,13,48
2020-04-13T03:19:00+09:00,1.9,�k�k��,6.7,�k��,8.6,86.5,0.5,3,13,48
2020-04-13T03:20:00+09:00,1.9,�k��,6.7,�k��,8.6,87,0.5,3,13,48
2020-04-13T03:21:00+09:00,2.3,�k��,11,���k��,8.7,87.2,0.5,3,13,48
2020-04-13T03:22:00+09:00,2.5,�k��,11,���k��,8.8,86.4,0.5,3,13,48
2020-04-13T03:23:00+09:00,2.8,�k��,11,���k��,8.8,85.8,0.5,3.5,13.5,48.5
2020-04-13T03:24:00+09:00,2.8,�k��,11,���k��,8.7,85.7,0.5,3.5,13.5,48.5
2020-04-13T03:25:00+09:00,2.8,�k��,11,���k��,8.7,86.1,0.5,3.5,13.5,48.5
2020-04-13T03:26:00+09:00,3,�k��,11,���k��,8.7,86.2,0.5,3,13.5,48.5
2020-04-13T03:27:00+09:00,3.2,�k�k��,11,���k��,8.8,86,0.5,3,13.5,48.5
2020-04-13T03:28:00+09:00,3.3,�k�k��,11,���k��,8.8,85.3,0.5,3,13.5,48.5
2020-04-13T03:29:00+09:00,3.5,�k�k��,11,���k��,8.9,85.1,0.5,3,13.5,48.5
2020-04-13T03:30:00+09:00,3.7,�k�k��,11,���k��,8.9,84.4,0.5,3,13.5,48.5
2020-04-13T03:31:00+09:00,3.3,�k�k��,10.3,���k��,8.9,84,0.5,3,13.5,48.5
2020-04-13T03:32:00+09:00,3.2,�k�k��,10.3,���k��,8.9,84.2,0.5,3,13.5,48.5
2020-04-13T03:33:00+09:00,3,�k�k��,10.3,���k��,8.8,84.6,0,3,13.5,48.5
2020-04-13T03:34:00+09:00,3,�k�k��,10.3,���k��,8.8,84.7,0,3,13.5,48.5
2020-04-13T03:35:00+09:00,2.9,�k�k��,10.3,���k��,8.8,84.6,0.5,3.5,14,49
2020-04-13T03:36:00+09:00,2.9,�k��,10.3,���k��,8.8,84.8,0.5,3.5,14,49
2020-04-13T03:37:00+09:00,2.8,�k��,7.8,�k��,8.7,85.5,0.5,3.5,14,49
2020-04-13T03:38:00+09:00,2.5,�k��,6.5,�k��,8.7,85.7,0.5,3,14,49
2020-04-13T03:39:00+09:00,2.5,�k��,6.5,�k��,8.6,86.6,0.5,3,14,49
2020-04-13T03:40:00+09:00,2.4,�k��,6.5,�k��,8.6,86.7,0.5,3,14,49
2020-04-13T03:41:00+09:00,2.8,�k��,9.4,���k��,8.7,86.4,0.5,3,14,49
2020-04-13T03:42:00+09:00,3.1,���k��,10.1,�k��,8.8,85.4,0.5,3,14,49
2020-04-13T03:43:00+09:00,3.1,�k��,10.1,�k��,8.7,85.2,1,3.5,14.5,49.5
2020-04-13T03:44:00+09:00,3,�k��,10.1,�k��,8.6,86.1,1,3.5,14.5,49.5
2020-04-13T03:45:00+09:00,3.2,�k��,10.1,�k��,8.6,86.6,0.5,3.5,14.5,49.5
2020-04-13T03:46:00+09:00,3.2,�k��,10.1,�k��,8.7,86.4,0.5,3.5,14.5,49.5
2020-04-13T03:47:00+09:00,3,�k�k��,10.1,�k��,8.6,86.3,0.5,3,14.5,49.5
2020-04-13T03:48:00+09:00,3,�k�k��,10.1,�k��,8.6,87,0.5,3,14.5,49.5
2020-04-13T03:49:00+09:00,3,�k�k��,10.1,�k��,8.7,86.2,0.5,3,14.5,49.5
2020-04-13T03:50:00+09:00,2.8,�k�k��,10.1,�k��,8.6,86,0.5,3,14.5,49.5
2020-04-13T03:51:00+09:00,2.4,�k,10.1,�k��,8.6,86.8,0.5,3,14.5,49.5
2020-04-13T03:52:00+09:00,2,�k,8.1,���k��,8.6,86.7,0.5,3,14.5,49.5
2020-04-13T03:53:00+09:00,1.8,�k,8.1,���k��,8.7,86.3,0.5,3.5,15,50
2020-04-13T03:54:00+09:00,1.9,�k,8.1,���k��,8.7,86.1,0.5,3,15,50
2020-04-13T03:55:00+09:00,1.9,�k,7.2,�k�k��,8.7,85.7,0.5,3,15,50
2020-04-13T03:56:00+09:00,1.8,�k�k��,6.6,�k�k��,8.8,85.2,0.5,3,15,50
2020-04-13T03:57:00+09:00,1.9,�k�k��,6.6,�k�k��,8.8,84.6,0.5,3,15,50
2020-04-13T03:58:00+09:00,1.9,�k�k��,6.6,�k�k��,8.7,85,0.5,3,15,50
2020-04-13T03:59:00+09:00,2.1,�k�k��,10.1,��,8.7,85.7,0.5,3,15,50
2020-04-13T04:00:00+09:00,2.4,�k�k��,10.1,��,8.7,85.8,0.5,3,15,50
2020-04-13T04:01:00+09:00,2.7,�k��,10.1,��,8.8,85.3,0.5,3,15,50
2020-04-13T04:02:00+09:00,3,�k��,10.1,��,8.8,84.4,0.5,3,15,50
2020-04-13T04:03:00+09:00,3.2,�k��,10.1,��,8.8,84.5,0,3,15,50
2020-04-13T04:04:00+09:00,3.3,�k��,10.1,��,8.7,84.7,0,3,15,50
2020-04-13T04:05:00+09:00,3.1,�k��,10.1,��,8.7,85,0,2.5,15,50
2020-04-13T04:06:00+09:00,3.2,�k��,10.1,��,8.6,85.7,0.5,3,15.5,50.5
2020-04-13T04:07:00+09:00,3.1,�k��,10.1,��,8.6,86.3,0.5,3,15.5,50.5
2020-04-13T04:08:00+09:00,3.1,�k��,10.1,��,8.6,86.4,0.5,3,15.5,50.5
2020-04-13T04:09:00+09:00,2.9,�k��,8.8,���k��,8.6,86.5,0.5,3,15.5,50.5
2020-04-13T04:10:00+09:00,2.9,�k��,8.8,���k��,8.6,86.8,0.5,3,15.5,50.5
2020-04-13T04:11:00+09:00,2.5,�k��,8.8,���k��,8.6,86.5,0.5,3,15.5,50.5
2020-04-13T04:12:00+09:00,2.3,�k�k��,7.1,�k��,8.6,86.7,0.5,3,15.5,50.5
2020-04-13T04:13:00+09:00,2.2,�k�k��,7.1,�k��,8.6,86.8,0.5,2.5,15.5,50.5
2020-04-13T04:14:00+09:00,2,�k�k��,6.8,�k�k��,8.5,86.8,0.5,2.5,15.5,50.5
2020-04-13T04:15:00+09:00,2.1,�k�k��,6.8,�k�k��,8.5,87.3,0.5,2.5,15.5,50.5
2020-04-13T04:16:00+09:00,2,�k�k��,6.8,�k�k��,8.5,87.6,0,2.5,15.5,50.5
2020-04-13T04:17:00+09:00,2.1,�k�k��,6.8,�k�k��,8.4,87.7,0,2.5,15.5,50.5
2020-04-13T04:18:00+09:00,2.2,�k,6.8,�k�k��,8.3,88.2,0.5,3,16,51
2020-04-13T04:19:00+09:00,2.2,�k,6.8,�k�k��,8.4,89,0.5,3,16,51
2020-04-13T04:20:00+09:00,2,�k,6,�k�k��,8.4,88.9,0.5,3,16,51
2020-04-13T04:21:00+09:00,2.2,�k,6,�k�k��,8.5,88.6,0.5,3,16,51
2020-04-13T04:22:00+09:00,2.3,�k,6.7,�k��,8.6,87.3,0.5,3,16,51
2020-04-13T04:23:00+09:00,2.2,�k,6.7,�k��,8.5,87.4,0.5,2.5,16,51
2020-04-13T04:24:00+09:00,2.2,�k,6.7,�k��,8.5,87.8,0.5,2.5,16,51
2020-04-13T04:25:00+09:00,2.2,�k,6.7,�k��,8.5,88,0.5,2.5,16,51
2020-04-13T04:26:00+09:00,2.3,�k,6.7,�k��,8.5,87.8,0.5,2.5,16,51
2020-04-13T04:27:00+09:00,2.2,�k,6.7,�k��,8.6,87.5,0.5,2.5,16,51
2020-04-13T04:28:00+09:00,2.2,�k�k��,6.7,�k��,8.6,87.3,0,2.5,16,51
2020-04-13T04:29:00+09:00,2.4,�k�k��,6.7,�k��,8.6,87.5,0,2.5,16,51
2020-04-13T04:30:00+09:00,2.5,�k�k��,6.7,�k��,8.5,87.3,0,2.5,16,51
2020-04-13T04:31:00+09:00,2.3,�k,6.7,�k��,8.5,87.6,0,2.5,16,51
2020-04-13T04:32:00+09:00,2.1,�k,6.7,���k��,8.5,87.6,0.5,3,16.5,51.5
2020-04-13T04:33:00+09:00,2,�k,6.7,���k��,8.5,87.5,0.5,3,16.5,51.5
2020-04-13T04:34:00+09:00,2.2,�k,6.7,���k��,8.6,87.3,0.5,3,16.5,51.5
2020-04-13T04:35:00+09:00,2.2,�k,6.7,���k��,8.6,87.1,0.5,2.5,16.5,51.5
2020-04-13T04:36:00+09:00,2,�k�k��,6.7,���k��,8.6,87.1,0.5,2.5,16.5,51.5
2020-04-13T04:37:00+09:00,2.1,�k�k��,6.7,���k��,8.6,87.2,0.5,2.5,16.5,51.5
2020-04-13T04:38:00+09:00,2.2,�k�k��,6.7,���k��,8.6,87.2,0.5,2.5,16.5,51.5
2020-04-13T04:39:00+09:00,2.1,�k�k��,5.8,�k�k��,8.6,87.3,0.5,2.5,16.5,51.5
2020-04-13T04:40:00+09:00,2.1,�k�k��,5.8,�k�k��,8.6,87,0.5,2.5,16.5,51.5
2020-04-13T04:41:00+09:00,2.3,�k��,6.2,�k��,8.6,86.9,0.5,2.5,16.5,51.5
2020-04-13T04:42:00+09:00,2.6,�k��,6.2,�k��,8.7,86.7,0,2.5,16.5,51.5
2020-04-13T04:43:00+09:00,2.7,�k��,6.2,�k��,8.7,86,0,2,16.5,51.5
2020-04-13T04:44:00+09:00,2.5,�k��,6.2,�k��,8.7,86.2,0.5,2.5,17,52
2020-04-13T04:45:00+09:00,2.4,�k��,6.2,�k��,8.6,86.3,0.5,2.5,17,52
2020-04-13T04:46:00+09:00,2.4,�k��,6.2,�k��,8.5,87.1,0.5,2.5,17,52
2020-04-13T04:47:00+09:00,2.2,�k��,6.2,�k��,8.5,87.4,0.5,2.5,17,52
2020-04-13T04:48:00+09:00,2.1,�k��,6.2,�k��,8.5,87.7,0.5,2.5,17,52
2020-04-13T04:49:00+09:00,2,�k�k��,6.2,�k��,8.5,88.1,0.5,2.5,17,52
2020-04-13T04:50:00+09:00,1.9,�k�k��,6.2,�k��,8.5,88.1,0.5,2.5,17,52
2020-04-13T04:51:00+09:00,1.7,�k�k��,5.4,��,8.6,87.6,0.5,2.5,17,52
2020-04-13T04:52:00+09:00,1.6,�k�k��,5.8,�k��,8.6,87.3,0.5,2.5,17,52
2020-04-13T04:53:00+09:00,1.7,�k�k��,10.8,�k��,8.6,87.2,0.5,2,17,52
2020-04-13T04:54:00+09:00,1.9,�k�k��,10.8,�k��,8.6,87,0,2,17,52
2020-04-13T04:55:00+09:00,2.2,�k�k��,10.8,�k��,8.6,86.9,0,2,17,52
2020-04-13T04:56:00+09:00,2.2,�k�k��,10.8,�k��,8.7,86.7,0,2,17,52
2020-04-13T04:57:00+09:00,2.4,�k��,10.8,�k��,8.6,86.4,0,2,17,52
2020-04-13T04:58:00+09:00,2.6,�k��,10.8,�k��,8.6,86.7,0,2,17,52
2020-04-13T04:59:00+09:00,2.6,�k��,10.8,�k��,8.6,86.8,0.5,2.5,17.5,52.5
2020-04-13T05:00:00+09:00,2.5,�k��,10.8,�k��,8.5,87.2,0.5,2.5,17.5,52.5
2020-04-13T05:01:00+09:00,2.5,�k�k��,10.8,�k��,8.4,87.7,0.5,2.5,17.5,52.5
2020-04-13T05:02:00+09:00,2.6,�k�k��,10.8,�k��,8.4,87.9,0.5,2.5,17.5,52.5
2020-04-13T05:03:00+09:00,2.5,�k�k��,8.3,�k��,8.5,87.8,0.5,2.5,17.5,52.5
2020-04-13T05:04:00+09:00,2.4,�k�k��,6.3,�k��,8.5,87.8,0.5,2.5,17.5,52.5
2020-04-13T05:05:00+09:00,2.2,�k�k��,6.2,�k�k��,8.5,87.9,0.5,2.5,17.5,52.5
2020-04-13T05:06:00+09:00,2.2,�k�k��,6.2,�k�k��,8.5,87.3,0.5,2,17.5,52.5
2020-04-13T05:07:00+09:00,2,�k,6.2,�k�k��,8.5,87.5,0.5,2,17.5,52.5
2020-04-13T05:08:00+09:00,1.9,�k,6.2,�k�k��,8.5,87.8,0.5,2,17.5,52.5
2020-04-13T05:09:00+09:00,1.9,�k,6.2,�k�k��,8.5,87.9,0,2,17.5,52.5
2020-04-13T05:10:00+09:00,1.9,�k,6.2,�k�k��,8.5,87.8,0,2,17.5,52.5
2020-04-13T05:11:00+09:00,2.1,�k,6.2,�k�k��,8.7,87.3,0.5,2.5,18,53
2020-04-13T05:12:00+09:00,1.9,�k,4.3,�k��,8.7,86.3,0.5,2.5,18,53
2020-04-13T05:13:00+09:00,1.7,�k�k��,4.3,�k��,8.6,86.2,0.5,2.5,18,53
2020-04-13T05:14:00+09:00,1.7,�k�k��,4.3,�k��,8.6,86.5,0.5,2.5,18,53
2020-04-13T05:15:00+09:00,1.7,�k�k��,4.3,�k��,8.5,87,0.5,2.5,18,53
2020-04-13T05:16:00+09:00,1.7,�k�k��,3.7,�k��,8.5,87.3,0.5,2.5,18,53
2020-04-13T05:17:00+09:00,1.8,�k�k��,3.7,�k��,8.4,87.6,0.5,2.5,18,53
2020-04-13T05:18:00+09:00,1.9,�k�k��,4,�k�k��,8.4,88.1,0.5,2,18,53
2020-04-13T05:19:00+09:00,2,�k�k��,5.7,�k�k��,8.4,88.4,1,2.5,18.5,53.5
2020-04-13T05:20:00+09:00,2.1,�k�k��,5.9,�k��,8.5,88.4,1,2.5,18.5,53.5
2020-04-13T05:21:00+09:00,2,�k�k��,5.9,�k��,8.4,87.7,0.5,2.5,18.5,53.5
2020-04-13T05:22:00+09:00,2.2,�k�k��,5.9,�k��,8.4,88.2,0.5,2.5,18.5,53.5
2020-04-13T05:23:00+09:00,2.3,�k�k��,5.9,�k��,8.4,88.4,0.5,2.5,18.5,53.5
2020-04-13T05:24:00+09:00,2.3,�k�k��,5.9,�k��,8.4,88.4,1,3,19,54
2020-04-13T05:25:00+09:00,2.2,�k�k��,5.9,�k��,8.3,88.8,1,3,19,54
2020-04-13T05:26:00+09:00,2.1,�k,5.9,�k��,8.3,89.1,1,3,19,54
2020-04-13T05:27:00+09:00,2,�k,5.9,�k��,8.3,89.4,1,3,19,54
2020-04-13T05:28:00+09:00,2.1,�k,6.2,���k��,8.3,89.6,1,3,19,54
2020-04-13T05:29:00+09:00,2.2,�k,7.5,�k��,8.4,89.9,0.5,3,19,54
2020-04-13T05:30:00+09:00,2.3,�k�k��,7.5,�k��,8.5,89.4,1,3.5,19.5,54.5
2020-04-13T05:31:00+09:00,2.4,�k�k��,7.5,�k��,8.4,89.2,1,3.5,19.5,54.5
2020-04-13T05:32:00+09:00,2.4,�k�k��,8.3,�k��,8.4,89.4,1,3,19.5,54.5
2020-04-13T05:33:00+09:00,2.6,�k�k��,10.2,�k��,8.5,89.4,1,3,19.5,54.5
2020-04-13T05:34:00+09:00,2.7,�k�k��,10.2,�k��,8.5,88.9,1,3.5,20,55
2020-04-13T05:35:00+09:00,2.8,�k�k��,10.2,�k��,8.5,88.6,1,3.5,20,55
2020-04-13T05:36:00+09:00,2.8,�k�k��,10.2,�k��,8.4,88.8,1,3.5,20,55
2020-04-13T05:37:00+09:00,2.8,�k�k��,10.2,�k��,8.6,88.5,1,3.5,20,55
2020-04-13T05:38:00+09:00,2.7,�k�k��,10.2,�k��,8.6,87.9,1,3.5,20,55
2020-04-13T05:39:00+09:00,2.3,�k�k��,10.2,�k��,8.6,87.6,1.5,4,20.5,55.5
2020-04-13T05:40:00+09:00,2.1,�k��,10.2,�k��,8.5,87.8,1,4,20.5,55.5
2020-04-13T05:41:00+09:00,1.8,�k��,10.2,�k��,8.5,88.1,1,4,20.5,55.5
2020-04-13T05:42:00+09:00,1.6,�k��,10.2,�k��,8.6,87.8,1,4,20.5,55.5
2020-04-13T05:43:00+09:00,1.2,�k�k��,7.6,�k�k��,8.5,87.7,1,4,20.5,55.5
2020-04-13T05:44:00+09:00,1.3,�k,7.3,���k��,8.6,87.8,0.5,3.5,20.5,55.5
2020-04-13T05:45:00+09:00,1.2,�k�k��,7.3,���k��,8.6,87.7,0.5,3.5,20.5,55.5
2020-04-13T05:46:00+09:00,1.3,�k�k��,7.3,���k��,8.6,87.8,0.5,3.5,20.5,55.5
2020-04-13T05:47:00+09:00,1.3,�k�k��,7.3,���k��,8.7,87.3,0.5,3.5,20.5,55.5
2020-04-13T05:48:00+09:00,1.5,�k�k��,7.3,���k��,8.6,87.2,0.5,3.5,20.5,55.5
2020-04-13T05:49:00+09:00,1.8,�k�k��,7.3,���k��,8.6,87.6,0,3.5,20.5,55.5
2020-04-13T05:50:00+09:00,2,�k�k��,7.3,���k��,8.7,87.4,0,3.5,20.5,55.5
2020-04-13T05:51:00+09:00,2.3,�k,9.1,���k��,8.7,86.9,0,3.5,20.5,55.5